Weather in Krivogastani

North Macedonia     41°20′16″N   21°27′58″E
temp.,
°C
wind,
m/s
gust,
m/s
humid.,
%
clouds,
%
prec.,
mm/h
press.,
hPa
HPBL,
m
15 may, sat
sat1523:00+9sw1179100 0.0 101411
02:00+8sw0085100 0.0 101410
05:00+8wsw1184100 0.1 101313
08:00+12ssw2276100 0.4 1012294
11:00+15s3558100 0.0 10101064
14:00+11s2286100 3.1 1011261
17:00+12ese117696 1.3 1010490
20:00+10e018599 1.5 101010
16 may, sun
sun1623:00+8w11889 0.0 101111
02:00+7wnw119094 0.0 101210
05:00+6wsw1191100 0.0 101210
08:00+11wsw117832 0.0 1012296
11:00+17w125716 0.0 10101282
14:00+20wsw554567 0.0 10092019
17:00+19wsw775393 0.0 10091237
20:00+13wsw1272100 0.0 101013
17 may, mon
mon1723:00+10sw11845 0.0 101211
02:00+9wsw118953 0.0 101211
05:00+8sw11908 0.0 101311
08:00+14sw12710 0.0 1012271
11:00+21sw35515 0.0 10101288
14:00+23wsw7104660 0.0 10092085
17:00+22w811540 0.0 10091497
20:00+16wsw366418 0.0 1011109
18 may, tue
tue1823:00+15ssw226697 0.0 101220
02:00+14ssw227399 0.0 101227
05:00+15sw376770 0.0 1012255
08:00+18wsw476011 0.0 1013832
11:00+22wsw6846100 0.0 10131743
14:00+23wsw7938100 0.0 10121877
17:00+21w8104497 0.0 1011784
20:00+16w225499 0.0 101216
19 may, wed
wed1923:00+12sw11680 0.0 101211
02:00+11ssw22770 0.0 101117
05:00+12wsw38753 0.0 1011221
08:00+16wsw47520 0.0 1011955
11:00+19w711425 0.0 10112218
14:00+20w911334 0.0 10112486
17:00+18wsw89435 0.0 10102216
20:00+12wsw511560 0.0 1012305